Regional Weather Roundup
Issued by NWS

Home | Current Version | Previous Version | Graphics & Text | Print | Product List | Glossary On
Versions: 1 2 3 4 5 6 7 8 9 10 11 12 13 14 15 16 17 18 19 20 21 22 23 24 25 26 27 28 29 30 31 32 33 34 35 36 37 38 39 40 41 42 43 44 45 46 47 48 49 50
000
ASUS43 KTOP 060708
RWRKS

WEATHER ROUNDUP FOR KANSAS
NATIONAL WEATHER SERVICE GOODLAND KS
200 AM CDT WED MAY 06 2015

NOTE:  "FAIR" INDICATES FEW OR NO CLOUDS BELOW 12,000 FEET WITH NO
SIGNIFICANT WEATHER AND/OR OBSTRUCTIONS TO VISIBILITY.

KSZ001>006-013>018-027>032-041>047-060800-
NORTHWEST KANSAS

CITY           SKY/WX    TMP DP  RH WIND       PRES   REMARKS
GOODLAND       CLOUDY    52  51  97 S10       29.76S
HAYS           CLOUDY    61  55  82 SE16      29.81F
HILL CITY      CLOUDY    62  59  90 SE9       29.80F
RUSSELL        CLOUDY    62  60  93 SE18      29.81F
$$

KSZ061>065-074>080-084>089-060800-
SOUTHWEST KANSAS

CITY           SKY/WX    TMP DP  RH WIND       PRES   REMARKS
DODGE CITY     CLOUDY    59  57  93 S15       29.78F
ELKHART          N/A     51  47  86 S8          N/A
GARDEN CITY    PTCLDY    51  50  96 SE7       29.77R
GREAT BEND     CLOUDY    63  57  82 SE25G32   29.80F
LIBERAL        PTCLDY    54  48  82 SE9       29.79F
PRATT          LGT RAIN  61  59  94 SE12      29.81F
$$

KSZ066>073-081>083-090>101-060800-
SOUTHEAST KANSAS

CITY           SKY/WX    TMP DP  RH WIND       PRES   REMARKS
CHANUTE        LGT RAIN  66  60  81 SE9       29.96F
COFFEYVILLE    LGT RAIN  65  62  90 E8        29.93F
HUTCHINSON     LGT RAIN  64  61  90 SE15G23   29.83F
MEDICINE LODGE   N/A     63  62  97 SE13G23   29.79F
NEWTON         CLOUDY    61  55  82 S13       29.91F
PARSONS        LGT RAIN  65  61  87 VRB7      29.95F
WICHITA INTL   RAIN      62  59  90 SE16      29.85F FOG
WICHITA JABRA  HVY RAIN  62  62 100 S9          N/A
WICHITA MCCONL LGT RAIN  61  59  94 SE8       29.86F FOG
WINFIELD       RAIN      65  63  93 S25G32    29.87F
$$

KSZ007>012-019>026-033>040-048>060-102>105-060800-
NORTHEAST KANSAS

CITY           SKY/WX    TMP DP  RH WIND       PRES   REMARKS
CONCORDIA      CLOUDY    63  59  87 SE18G24   29.88F
EMPORIA        LGT RAIN  64  63  96 E9        29.93F
LAWRENCE       CLOUDY    64  62  93 E5        29.97F
MANHATTAN      RAIN      65  62  90 S17G25    29.92F FOG
MARYSVILLE     MOCLDY    63  61  94 SE9       29.93F
OLATHE IND     MOCLDY    67  57  70 SE15      29.98F
OLATHE EXE     MOCLDY    66  58  75 SE9       29.98F
SALINA         LGT RAIN  65  60  84 SE26G36   29.85F
TOPEKA BILLARD CLOUDY    64  63  96 E8        29.95F
TOPEKA FORBES  CLOUDY    66  63  90 E8        29.95F
$$


USA.gov is the U.S. government's official web portal to all federal, state and local government web resources and services.